MPEC 2004-T35 : 2004 TJ10

The following Minor Planet Electronic Circular may be linked-to from your own Web pages, but must not otherwise be redistributed electronically.


Read MPEC 2004-T34 Read MPEC 2004-T36


M.P.E.C. 2004-T35                                Issued 2004 Oct.  9, 15:15 UT

     The Minor Planet Electronic Circulars contain information on unusual
         minor planets and routine data on comets.  They are published
   on behalf of Commission 20 of the International Astronomical Union by the
          Minor Planet Center, Smithsonian Astrophysical Observatory,
                          Cambridge, MA 02138, U.S.A.

                  Supported in part by the Brinson Foundation
             Prepared using the Tamkin Foundation Computer Network

                              MPC@CFA.HARVARD.EDU
          URL http://cfa-www.harvard.edu/iau/mpc.html  ISSN 1523-6714

                                   2004 TJ10

Observations:
     K04T10J*tC2004 10 08.26682 01 37 51.45 +08 51 20.1          18.2 V ET035691
     K04T10J tC2004 10 08.29360 01 38 07.16 +08 38 53.2          20.1 V ET035691
     K04T10J tC2004 10 08.32082 01 38 23.25 +08 26 08.2          19.6 V ET035691
     K04T10J tC2004 10 08.41443 01 39 18.89 +07 41 51.9          20.0 V ET035291
     K04T10J tC2004 10 08.42081 01 39 22.84 +07 38 46.7          20.0 V ET035291
     K04T10J tC2004 10 08.42774 01 39 27.05 +07 35 26.5          19.9 V ET035291
     K04T10J  C2004 10 08.95576 01 45 36.28 +03 10 19.8                 ET035J95
     K04T10J  C2004 10 08.96335 01 45 41.30 +03 06 22.0          19.5 R ET035J95
     K04T10J  C2004 10 08.97111 01 45 46.46 +03 02 16.6          19.2 R ET035J95
     K04T10J  C2004 10 09.15917 01 48 05.67 +01 22 36.4          19.1 R ET035649
     K04T10J  C2004 10 09.16062 01 48 06.90 +01 21 49.9          19.5 R ET035649
     K04T10J  C2004 10 09.16207 01 48 07.85 +01 21 02.6          19.0 R ET035649
     K04T10J  C2004 10 09.16352 01 48 08.90 +01 20 15.9          19.0 R ET035649
     K04T10J  C2004 10 09.16497 01 48 09.87 +01 19 27.6          19.1 R ET035649
     K04T10J 2C2004 10 09.17430 01 48 13.14 +01 17 46.8          18.5 R ET035I05
     K04T10J 2C2004 10 09.17584 01 48 14.21 +01 16 56.3          18.3 R ET035I05
     K04T10J 2C2004 10 09.17723 01 48 15.02 +01 16 12.8          18.4 R ET035I05
     K04T10J tC2004 10 09.21287 01 48 45.54 +00 53 45.1          19.9 V ET035291
     K04T10J tC2004 10 09.21688 01 48 48.12 +00 51 37.1          19.8 V ET035291
     K04T10J  C2004 10 09.26276 01 49 19.54 +00 26 27.4          18.8 R ET035G90
     K04T10J  C2004 10 09.26414 01 49 20.46 +00 25 42.0          18.7 R ET035G90
     K04T10J  C2004 10 09.26551 01 49 21.39 +00 24 56.7          18.7 R ET035G90
     K04T10J tC2004 10 09.31848 01 49 57.58 -00 04 13.5          20.1 V ET035291
     K04T10J tC2004 10 09.32266 01 50 00.49 -00 06 31.5          19.8 V ET035291
     K04T10J tC2004 10 09.32655 01 50 03.12 -00 08 42.8          19.8 V ET035291
     K04T10J tC2004 10 09.43388 01 51 17.23 -01 08 36.1          19.8 V ET035291
     K04T10J tC2004 10 09.43775 01 51 19.92 -01 10 46.1          19.8 V ET035291
     K04T10J tC2004 10 09.44161 01 51 22.75 -01 12 58.2          19.7 V ET035291
     K04T10J tC2004 10 09.46951 01 51 42.50 -01 28 40.7          19.9 V ET035291
     K04T10J tC2004 10 09.47361 01 51 45.51 -01 31 00.7          19.8 V ET035291
     K04T10J tC2004 10 09.47754 01 51 48.28 -01 33 12.5          19.5 V ET035291

Observer details:
291 LPL/Spacewatch II.  Observers T. H. Bressi, M. Block.  1.8-m f/2.7
    reflector + CCD.
649 Powell Observatory, Louisburg.  Observers R. Fredrick, R. Trentman,
    A. Robertson.  0.75-m Newtonian reflector + CCD.
691 Steward Observatory, Kitt Peak.  Observers M. Block, R. C. Klein.
    Measurer M. Block.  0.9-m f/3 reflector + CCD.
G90 Three Buttes Observatory, Tucson.  Observer G. R. Jones.  0.40-m
    Ritchey-Chretien + CCD.
I05 Las Campanas Observatory-TIE.  Observers G. Masi, F. Mallia.  Measurer
    G. Masi.  0.36-m SoTIE reflector + CCD.
J95 Great Shefford.  Observer P. Birtwhistle.  0.30-m f/6.3 Schmidt-Cassegrain
    + CCD.

Orbital elements:
2004 TJ10
Epoch 2004 July 14.0 TT = JDT 2453200.5                 MPC
M 264.72191              (2000.0)            P               Q
n   0.65998368     Peri.  250.85881     +0.08420373     -0.99004338
a   1.3065135      Node   195.65214     +0.99644741     +0.08383393
e   0.3291577      Incl.   24.71428     +0.00151014     -0.11307513
P   1.49           H   25.2           G   0.15           U   7
Residuals in seconds of arc
041008 691  1.0-  1.2+    041009 649  0.9-  0.3+    041009 291  0.8-  0.2-
041008 691  1.5-  0.6+    041009 649  0.1-  0.6+    041009 291  0.2+  0.6+
041008 691  0.2-  1.3-    041009 649  0.6-  0.7-    041009 291  0.1-  1.4-
041008 291  0.2-  0.3+    041009 I05  1.1-  1.0+    041009 291  0.1+  0.0
041008 291  1.1+  1.8-    041009 I05  0.5-  0.5+    041009 291  0.5-  0.6+
041008 291 (1.2+  3.0-)   041009 I05 (2.2-  2.2+)   041009 291  1.1+  1.2-
041008 J95  0.9+  0.1+    041009 291  0.3+  0.5-    041009 291  0.5-  0.1+
041008 J95  0.3+  0.7+    041009 291 (2.4-  2.5+)   041009 291  0.5+  0.9-
041008 J95  0.1+  0.7-    041009 G90  0.4-  0.0     041009 291  0.3-  0.6+
041009 649 (3.7-  0.1+)   041009 G90  0.7-  0.1+
041009 649  0.2-  0.6+    041009 G90  0.7-  0.1-

Ephemeris:
2004 TJ10                a,e,i = 1.31, 0.33, 25                  q = 0.8765
Date    TT    R. A. (2000) Decl.     Delta      r     Elong.  Phase     V
2004 10 02    00 51.57   +36 17.9    0.096    1.082   147.0    30.2    21.6
2004 10 04    01 02.72   +30 56.8    0.080    1.072   152.9    25.1    21.0
2004 10 06    01 16.82   +22 58.3    0.066    1.062   160.9    18.0    20.4
2004 10 08    01 34.98   +10 53.4    0.054    1.052   169.0    10.5    19.6
2004 10 10    01 58.82   -06 36.4    0.046    1.042   160.7    18.5    19.6
2004 10 12    02 30.59   -27 45.1    0.045    1.032   139.8    38.6    20.1
2004 10 14    03 12.91   -46 36.2    0.050    1.023   119.5    58.1    20.8
2004 10 16    04 07.47   -59 21.4    0.060    1.013   104.4    72.3    21.6
2004 10 18    05 11.79   -66 33.8    0.073    1.004    94.1    81.7    22.4
2004 10 20    06 17.54   -70 01.7    0.087    0.995    87.1    87.9    23.0
2004 10 22    07 15.36   -71 19.1    0.103    0.986    82.1    92.0    23.5

Kyle E. Smalley              (C) Copyright 2004 MPC           M.P.E.C. 2004-T35

Read MPEC 2004-T34 Read MPEC 2004-T36


Our Web policy. Index to the CBAT/MPC/ICQ pages.

MPC